﻿測定場所 (Monitoring sites),日付 (Measurement date),時間 (Measurement time),線量率 最大値 (max) μGy/h,線量率 最小値 (min) μGy/h,線量率 平均値 (average) μGy/h,
江東 (Koto),2021-09-05,23:01～24:00,0.0386,0.0345,0.0365,
江東 (Koto),2021-09-05,22:01～23:00,0.0384,0.0344,0.0366,
江東 (Koto),2021-09-05,21:01～22:00,0.0381,0.0332,0.0366,
江東 (Koto),2021-09-05,20:01～21:00,0.0384,0.0349,0.0366,
江東 (Koto),2021-09-05,19:01～20:00,0.0387,0.0347,0.0366,
江東 (Koto),2021-09-05,18:01～19:00,0.0395,0.0339,0.0364,
江東 (Koto),2021-09-05,17:01～18:00,0.0387,0.0340,0.0368,
江東 (Koto),2021-09-05,16:01～17:00,0.0387,0.0348,0.0367,
江東 (Koto),2021-09-05,15:01～16:00,0.0383,0.0345,0.0365,
江東 (Koto),2021-09-05,14:01～15:00,0.0385,0.0347,0.0369,
江東 (Koto),2021-09-05,13:01～14:00,0.0391,0.0343,0.0367,
江東 (Koto),2021-09-05,12:01～13:00,0.0391,0.0350,0.0368,
江東 (Koto),2021-09-05,11:01～12:00,0.0394,0.0353,0.0366,
江東 (Koto),2021-09-05,10:01～11:00,0.0388,0.0346,0.0368,
江東 (Koto),2021-09-05,09:01～10:00,0.0402,0.0353,0.0377,
江東 (Koto),2021-09-05,08:01～09:00,0.0415,0.0363,0.0386,
江東 (Koto),2021-09-05,07:01～08:00,0.0391,0.0351,0.0373,
江東 (Koto),2021-09-05,06:01～07:00,0.0405,0.0354,0.0382,
江東 (Koto),2021-09-05,05:01～06:00,0.0398,0.0356,0.0382,
江東 (Koto),2021-09-05,04:01～05:00,0.0421,0.0360,0.0386,
江東 (Koto),2021-09-05,03:01～04:00,0.0405,0.0357,0.0376,
江東 (Koto),2021-09-05,02:01～03:00,0.0402,0.0353,0.0379,
江東 (Koto),2021-09-05,01:01～02:00,0.0422,0.0366,0.0391,
江東 (Koto),2021-09-05,00:01～01:00,0.0415,0.0367,0.0392,
江東 (Koto),2021-09-04,23:01～24:00,0.0421,0.0353,0.0390,
江東 (Koto),2021-09-04,22:01～23:00,0.0398,0.0351,0.0378,
江東 (Koto),2021-09-04,21:01～22:00,0.0411,0.0366,0.0387,
江東 (Koto),2021-09-04,20:01～21:00,0.0416,0.0371,0.0393,
江東 (Koto),2021-09-04,19:01～20:00,0.0404,0.0353,0.0380,
江東 (Koto),2021-09-04,18:01～19:00,0.0390,0.0347,0.0369,
江東 (Koto),2021-09-04,17:01～18:00,0.0395,0.0348,0.0369,
江東 (Koto),2021-09-04,16:01～17:00,0.0395,0.0350,0.0368,
江東 (Koto),2021-09-04,15:01～16:00,0.0387,0.0350,0.0371,
江東 (Koto),2021-09-04,14:01～15:00,0.0405,0.0353,0.0379,
江東 (Koto),2021-09-04,13:01～14:00,0.0391,0.0343,0.0371,
江東 (Koto),2021-09-04,12:01～13:00,0.0391,0.0342,0.0365,
江東 (Koto),2021-09-04,11:01～12:00,0.0390,0.0345,0.0370,
江東 (Koto),2021-09-04,10:01～11:00,0.0388,0.0344,0.0368,
江東 (Koto),2021-09-04,09:01～10:00,0.0386,0.0348,0.0368,
江東 (Koto),2021-09-04,08:01～09:00,0.0388,0.0353,0.0368,
江東 (Koto),2021-09-04,07:01～08:00,0.0395,0.0343,0.0367,
江東 (Koto),2021-09-04,06:01～07:00,0.0391,0.0347,0.0368,
江東 (Koto),2021-09-04,05:01～06:00,0.0389,0.0347,0.0368,
江東 (Koto),2021-09-04,04:01～05:00,0.0383,0.0344,0.0365,
江東 (Koto),2021-09-04,03:01～04:00,0.0388,0.0351,0.0367,
江東 (Koto),2021-09-04,02:01～03:00,0.0394,0.0348,0.0366,
江東 (Koto),2021-09-04,01:01～02:00,0.0388,0.0347,0.0369,
江東 (Koto),2021-09-04,00:01～01:00,0.0395,0.0350,0.0370,
江東 (Koto),2021-09-03,23:01～24:00,0.0394,0.0347,0.0377,
江東 (Koto),2021-09-03,22:01～23:00,0.0395,0.0354,0.0377,
江東 (Koto),2021-09-03,21:01～22:00,0.0420,0.0369,0.0391,
江東 (Koto),2021-09-03,20:01～21:00,0.0424,0.0350,0.0386,
江東 (Koto),2021-09-03,19:01～20:00,0.0398,0.0345,0.0375,
江東 (Koto),2021-09-03,18:01～19:00,0.0420,0.0363,0.0389,
江東 (Koto),2021-09-03,17:01～18:00,0.0404,0.0350,0.0378,
江東 (Koto),2021-09-03,16:01～17:00,0.0386,0.0350,0.0369,
江東 (Koto),2021-09-03,15:01～16:00,0.0393,0.0342,0.0366,
江東 (Koto),2021-09-03,14:01～15:00,0.0387,0.0347,0.0368,
江東 (Koto),2021-09-03,13:01～14:00,0.0391,0.0345,0.0368,
江東 (Koto),2021-09-03,12:01～13:00,0.0414,0.0359,0.0386,
江東 (Koto),2021-09-03,11:01～12:00,0.0450,0.0386,0.0422,
江東 (Koto),2021-09-03,10:01～11:00,0.0456,0.0395,0.0435,
江東 (Koto),2021-09-03,09:01～10:00,0.0442,0.0376,0.0409,
江東 (Koto),2021-09-03,08:01～09:00,0.0419,0.0375,0.0400,
江東 (Koto),2021-09-03,07:01～08:00,0.0435,0.0389,0.0412,
江東 (Koto),2021-09-03,06:01～07:00,0.0460,0.0384,0.0419,
江東 (Koto),2021-09-03,05:01～06:00,0.0431,0.0378,0.0406,
江東 (Koto),2021-09-03,04:01～05:00,0.0442,0.0398,0.0419,
江東 (Koto),2021-09-03,03:01～04:00,0.0452,0.0373,0.0405,
江東 (Koto),2021-09-03,02:01～03:00,0.0443,0.0384,0.0404,
江東 (Koto),2021-09-03,01:01～02:00,0.0463,0.0406,0.0433,
江東 (Koto),2021-09-03,00:01～01:00,0.0443,0.0402,0.0426,
江東 (Koto),2021-09-02,23:01～24:00,0.0449,0.0387,0.0421,
江東 (Koto),2021-09-02,22:01～23:00,0.0500,0.0393,0.0451,
江東 (Koto),2021-09-02,21:01～22:00,0.0527,0.0477,0.0502,
江東 (Koto),2021-09-02,20:01～21:00,0.0522,0.0402,0.0455,
江東 (Koto),2021-09-02,19:01～20:00,0.0429,0.0360,0.0394,
江東 (Koto),2021-09-02,18:01～19:00,0.0407,0.0353,0.0379,
江東 (Koto),2021-09-02,17:01～18:00,0.0429,0.0365,0.0396,
江東 (Koto),2021-09-02,16:01～17:00,0.0444,0.0398,0.0419,
江東 (Koto),2021-09-02,15:01～16:00,0.0436,0.0376,0.0395,
江東 (Koto),2021-09-02,14:01～15:00,0.0430,0.0359,0.0396,
江東 (Koto),2021-09-02,13:01～14:00,0.0433,0.0383,0.0408,
江東 (Koto),2021-09-02,12:01～13:00,0.0474,0.0402,0.0438,
江東 (Koto),2021-09-02,11:01～12:00,0.0481,0.0426,0.0453,
江東 (Koto),2021-09-02,10:01～11:00,0.0510,0.0451,0.0480,
江東 (Koto),2021-09-02,09:01～10:00,0.0498,0.0444,0.0471,
江東 (Koto),2021-09-02,08:01～09:00,0.0467,0.0380,0.0417,
江東 (Koto),2021-09-02,07:01～08:00,0.0460,0.0383,0.0421,
江東 (Koto),2021-09-02,06:01～07:00,0.0466,0.0401,0.0427,
江東 (Koto),2021-09-02,05:01～06:00,0.0440,0.0388,0.0415,
江東 (Koto),2021-09-02,04:01～05:00,0.0471,0.0402,0.0434,
江東 (Koto),2021-09-02,03:01～04:00,0.0488,0.0416,0.0451,
江東 (Koto),2021-09-02,02:01～03:00,0.0468,0.0409,0.0439,
江東 (Koto),2021-09-02,01:01～02:00,0.0422,0.0364,0.0388,
江東 (Koto),2021-09-02,00:01～01:00,0.0406,0.0358,0.0379,
江東 (Koto),2021-09-01,23:01～24:00,0.0410,0.0363,0.0390,
江東 (Koto),2021-09-01,22:01～23:00,0.0434,0.0380,0.0405,
江東 (Koto),2021-09-01,21:01～22:00,0.0420,0.0359,0.0390,
江東 (Koto),2021-09-01,20:01～21:00,0.0398,0.0359,0.0377,
江東 (Koto),2021-09-01,19:01～20:00,0.0396,0.0353,0.0378,
江東 (Koto),2021-09-01,18:01～19:00,0.0408,0.0356,0.0381,
江東 (Koto),2021-09-01,17:01～18:00,0.0415,0.0367,0.0388,
江東 (Koto),2021-09-01,16:01～17:00,0.0420,0.0366,0.0391,
江東 (Koto),2021-09-01,15:01～16:00,0.0406,0.0372,0.0387,
江東 (Koto),2021-09-01,14:01～15:00,0.0406,0.0360,0.0384,
江東 (Koto),2021-09-01,13:01～14:00,0.0400,0.0359,0.0378,
江東 (Koto),2021-09-01,12:01～13:00,0.0396,0.0358,0.0379,
江東 (Koto),2021-09-01,11:01～12:00,0.0394,0.0357,0.0376,
江東 (Koto),2021-09-01,10:01～11:00,0.0398,0.0357,0.0378,
江東 (Koto),2021-09-01,09:01～10:00,0.0395,0.0345,0.0376,
江東 (Koto),2021-09-01,08:01～09:00,0.0402,0.0356,0.0377,
江東 (Koto),2021-09-01,07:01～08:00,0.0402,0.0357,0.0377,
江東 (Koto),2021-09-01,06:01～07:00,0.0400,0.0353,0.0377,
江東 (Koto),2021-09-01,05:01～06:00,0.0400,0.0362,0.0379,
江東 (Koto),2021-09-01,04:01～05:00,0.0402,0.0363,0.0381,
江東 (Koto),2021-09-01,03:01～04:00,0.0416,0.0367,0.0392,
江東 (Koto),2021-09-01,02:01～03:00,0.0425,0.0381,0.0403,
江東 (Koto),2021-09-01,01:01～02:00,0.0440,0.0353,0.0405,
江東 (Koto),2021-09-01,00:01～01:00,0.0405,0.0364,0.0383,
江東 (Koto),2021-08-31,23:01～24:00,0.0405,0.0367,0.0385,
江東 (Koto),2021-08-31,22:01～23:00,0.0399,0.0363,0.0380,
江東 (Koto),2021-08-31,21:01～22:00,0.0408,0.0360,0.0386,
江東 (Koto),2021-08-31,20:01～21:00,0.0410,0.0377,0.0395,
江東 (Koto),2021-08-31,19:01～20:00,0.0403,0.0357,0.0380,
江東 (Koto),2021-08-31,18:01～19:00,0.0397,0.0350,0.0375,
江東 (Koto),2021-08-31,17:01～18:00,0.0402,0.0355,0.0378,
江東 (Koto),2021-08-31,16:01～17:00,0.0395,0.0355,0.0377,
江東 (Koto),2021-08-31,15:01～16:00,0.0395,0.0356,0.0375,
江東 (Koto),2021-08-31,14:01～15:00,0.0404,0.0358,0.0377,
江東 (Koto),2021-08-31,13:01～14:00,0.0404,0.0359,0.0380,
江東 (Koto),2021-08-31,12:01～13:00,0.0402,0.0352,0.0379,
江東 (Koto),2021-08-31,11:01～12:00,0.0402,0.0363,0.0381,
江東 (Koto),2021-08-31,10:01～11:00,0.0401,0.0354,0.0380,
江東 (Koto),2021-08-31,09:01～10:00,0.0405,0.0353,0.0378,
江東 (Koto),2021-08-31,08:01～09:00,0.0403,0.0367,0.0381,
江東 (Koto),2021-08-31,07:01～08:00,0.0392,0.0353,0.0376,
江東 (Koto),2021-08-31,06:01～07:00,0.0401,0.0353,0.0377,
江東 (Koto),2021-08-31,05:01～06:00,0.0407,0.0357,0.0380,
江東 (Koto),2021-08-31,04:01～05:00,0.0410,0.0361,0.0382,
江東 (Koto),2021-08-31,03:01～04:00,0.0421,0.0371,0.0395,
江東 (Koto),2021-08-31,02:01～03:00,0.0453,0.0398,0.0428,
江東 (Koto),2021-08-31,01:01～02:00,0.0447,0.0357,0.0387,
江東 (Koto),2021-08-31,00:01～01:00,0.0404,0.0363,0.0381,
江東 (Koto),2021-08-30,23:01～24:00,0.0398,0.0353,0.0381,
江東 (Koto),2021-08-30,22:01～23:00,0.0405,0.0364,0.0382,
江東 (Koto),2021-08-30,21:01～22:00,0.0403,0.0357,0.0381,
江東 (Koto),2021-08-30,20:01～21:00,0.0401,0.0362,0.0381,
江東 (Koto),2021-08-30,19:01～20:00,0.0398,0.0353,0.0380,
江東 (Koto),2021-08-30,18:01～19:00,0.0396,0.0344,0.0380,
江東 (Koto),2021-08-30,17:01～18:00,0.0404,0.0354,0.0379,
江東 (Koto),2021-08-30,16:01～17:00,0.0401,0.0359,0.0379,
江東 (Koto),2021-08-30,15:01～16:00,0.0397,0.0359,0.0379,
江東 (Koto),2021-08-30,14:01～15:00,0.0400,0.0362,0.0380,
江東 (Koto),2021-08-30,13:01～14:00,0.0399,0.0363,0.0381,
江東 (Koto),2021-08-30,12:01～13:00,0.0404,0.0360,0.0381,
江東 (Koto),2021-08-30,11:01～12:00,0.0402,0.0360,0.0382,
江東 (Koto),2021-08-30,10:01～11:00,0.0398,0.0354,0.0378,
江東 (Koto),2021-08-30,09:01～10:00,0.0393,0.0357,0.0378,
江東 (Koto),2021-08-30,08:01～09:00,0.0392,0.0357,0.0376,
江東 (Koto),2021-08-30,07:01～08:00,0.0402,0.0357,0.0381,
江東 (Koto),2021-08-30,06:01～07:00,0.0393,0.0351,0.0377,
江東 (Koto),2021-08-30,05:01～06:00,0.0400,0.0358,0.0378,
江東 (Koto),2021-08-30,04:01～05:00,0.0401,0.0357,0.0378,
江東 (Koto),2021-08-30,03:01～04:00,0.0400,0.0358,0.0379,
江東 (Koto),2021-08-30,02:01～03:00,0.0398,0.0367,0.0383,
江東 (Koto),2021-08-30,01:01～02:00,0.0407,0.0363,0.0387,
江東 (Koto),2021-08-30,00:01～01:00,0.0404,0.0355,0.0378,
